Weather History for KPRC - June, 2013

Change the Weather History Date:

Saturday, June 1, 2013

  Actual Average Record
Temperature  
Mean Temperature 73 °F 66 °F  
Max Temperature 92 °F 82 °F 96 °F (2012)
Min Temperature 53 °F 51 °F 40 °F (1988)
Degree Days  
Heating Degree Days 0    
Month to date heating degree days 0  
Since 1 July heating degree days 3911  
Cooling Degree Days 8    
Month to date cooling degree days 8  
Year to date cooling degree days 51  
Growing Degree Days 23 (Base 50)    
Moisture  
Dew Point 21 °F    
Average Humidity 15    
Maximum Humidity 27    
Minimum Humidity 7    
Precipitation  
Precipitation 0.00 in 0.01 in 0.36 in (1972)
Month to date precipitation 0.00 0.01  
Year to date precipitation 2.51 4.55  
Sea Level Pressure  
Sea Level Pressure 29.79 in    
Wind  
Wind Speed 6 mph (SW)    
Max Wind Speed 15 mph    
Max Gust Speed 32 mph    
Visibility 10 miles    
Events      
T = Trace of Precipitation, MM = Missing Value Source: NWS Daily Summary

Daily Weather History Graph

Daily Weather History Graph

Search for Another Location

Airport or City:

Trip Planner

Search our weather history database for the weather conditions in past years. The results will help you decide how hot, cold, wet, or windy it might be!

Date:

Astronomy

Jun. 01, 2013 Rise Set
Actual Time 5:17 AM MST 7:37 PM MST
Civil Twilight 4:48 AM MST 8:06 PM MST
Nautical Twilight 4:13 AM MST 8:42 PM MST
Astronomical Twilight 3:34 AM MST 9:21 PM MST
Moon 1:00 AM MST (6/1) 1:25 PM MST (6/1)
Length of Visible Light 15h 18m
Length of Day
14h 19m
Last Quarter, 40% of the Moon is Illuminated
Jun 1
Last Quarter
Jun 8
New
Jun 16
First Quarter
Jun 23
Full
Jun 29
Last Quarter

Hourly Weather History & Observations

Time (MST) Temp. Dew Point Humidity Pressure Visibility Wind Dir Wind Speed Gust Speed Precip Events Conditions
12:53 AM 64.9 °F 24.1 °F 21% 29.82 in 10.0 mi WNW 4.6 mph - N/A   Clear
1:53 AM 64.9 °F 17.1 °F 16% 29.81 in 10.0 mi West 6.9 mph - N/A   Clear
2:53 AM 64.0 °F 15.1 °F 15% 29.80 in 10.0 mi West 4.6 mph - N/A   Clear
3:53 AM 57.9 °F 21.9 °F 25% 29.81 in 10.0 mi SSW 4.6 mph - N/A   Clear
4:53 AM 55.0 °F 23.0 °F 29% 29.84 in 10.0 mi South 5.8 mph - N/A   Clear
5:53 AM 55.0 °F 19.9 °F 25% 29.86 in 10.0 mi South 4.6 mph - N/A   Clear
6:53 AM 62.1 °F 25.0 °F 24% 29.86 in 10.0 mi South 3.5 mph - N/A   Clear
7:53 AM 70.0 °F 14.0 °F 12% 29.86 in 10.0 mi Calm Calm - N/A   Clear
8:53 AM 75.0 °F 14.0 °F 10% 29.85 in 10.0 mi Variable 4.6 mph - N/A   Clear
9:53 AM 79.0 °F 14.0 °F 9% 29.83 in 10.0 mi Calm Calm - N/A   Clear
10:53 AM 82.9 °F 15.1 °F 8% 29.83 in 10.0 mi Variable 4.6 mph - N/A   Clear
11:53 AM 84.0 °F 15.1 °F 8% 29.82 in 10.0 mi Calm Calm - N/A   Clear
12:53 PM 87.1 °F 16.0 °F 7% 29.80 in 10.0 mi Variable 5.8 mph - N/A   Clear
1:53 PM 89.1 °F 18.0 °F 7% 29.77 in 10.0 mi South 11.5 mph - N/A   Clear
2:53 PM 90.0 °F 17.1 °F 7% 29.75 in 10.0 mi SE 4.6 mph - N/A   Clear
3:53 PM 90.0 °F 17.1 °F 7% 29.74 in 10.0 mi North 11.5 mph 16.1 mph N/A   Clear
4:53 PM 91.0 °F 19.9 °F 7% 29.73 in 10.0 mi West 12.7 mph 19.6 mph N/A   Clear
5:53 PM 87.1 °F 21.0 °F 9% 29.75 in 10.0 mi West 11.5 mph - N/A   Clear
6:53 PM 84.9 °F 23.0 °F 10% 29.75 in 10.0 mi WSW 9.2 mph - N/A   Clear
7:53 PM 82.0 °F 26.1 °F 13% 29.74 in 10.0 mi SW 8.1 mph - N/A   Clear
8:53 PM 77.0 °F 32.0 °F 19% 29.75 in 10.0 mi SSW 6.9 mph - N/A   Clear
9:53 PM 73.0 °F 33.1 °F 23% 29.76 in 10.0 mi South 6.9 mph - N/A   Clear
10:53 PM 71.1 °F 30.0 °F 22% 29.76 in 10.0 mi SW 3.5 mph - N/A   Clear
11:53 PM 66.0 °F 32.0 °F 28% 29.77 in 10.0 mi Calm Calm - N/A   Clear